{"data":{"norad_id":57852,"epoch":"2026-05-25T02:44:43.448928Z","epoch_age_seconds":62388,"freshness":"FRESH","line1":"1 57852U 23141N   26145.11439177  .00000958  00000+0  44484-4 0  9998","line2":"2 57852  53.1613 288.8058 0001109 102.6936 257.4189 15.30196449152023","mean_motion":15.30196449,"eccentricity":0.0001109,"inclination_deg":53.1613,"raan_deg":288.8058,"arg_perigee_deg":102.6936,"mean_anomaly_deg":257.4189,"bstar":4.4484e-5,"rev_number":15202,"period_min":94.105564088915,"perigee_km":474.46563416542,"apogee_km":475.98571000609,"semimajor_km":6853.3626720858,"source":"CELESTRAK","updated_at":"2026-05-25T13:38:18.415506Z"}}